Date String (YYYY-MM-DD hh:mm:ss) UTC,Instrument flags,Ambient pressure (hPa),Sample flow (lpm),Bypass flow (lpm),Sample temperature (°C),Ambient temperature (°C),ASC tube jacket temperature (°C),LED temperature (°C),Box temperature (°C),Sample RH (%),Span deviation,Mass concentration (μg/m³),Mass concentration (μg/m³),Mass concentration (μg/m³)
DateTimeUTC,F1_M11,P_M11,Q1_M11,Q2_M11,T1_M11,T2_M11,T3_M11,T4_M11,T5_M11,U1_M11,ZSPAN_M11,X0_M11,X2_M11,X1_M11
2022-10-18 03:00:00,,0831.9,5.00,0.00,29.8,28.1,00.0,38.8,31.5,12.1,0003.5,0017.63,0007.35,0006.41
2022-10-18 03:01:00,,0831.9,5.00,0.00,29.8,28.1,00.0,38.8,31.5,12.1,0003.7,0016.66,0007.40,0006.42
2022-10-18 03:02:00,,0831.9,5.01,0.00,29.8,28.1,00.0,38.8,31.5,12.1,0003.2,0016.52,0007.44,0006.45
2022-10-18 03:03:00,,0832.0,5.01,0.00,29.8,28.1,00.0,38.8,31.5,12.1,0002.6,0016.49,0007.46,0006.46
2022-10-18 03:04:00,,0831.9,4.99,0.00,29.8,28.1,00.0,38.8,31.5,12.1,0002.2,0016.92,0007.51,0006.50
2022-10-18 03:05:00,,0832.0,4.99,0.00,29.8,28.1,00.0,38.7,31.5,12.1,0001.7,0016.55,0007.53,0006.50
2022-10-18 03:06:00,,0832.0,5.01,0.00,29.8,28.1,00.0,38.7,31.5,12.1,0001.4,0015.57,0007.52,0006.52
2022-10-18 03:07:00,,0831.9,5.01,0.00,29.8,28.1,00.0,38.7,31.5,12.1,0001.5,0015.57,0007.50,0006.52
2022-10-18 03:08:00,,0832.0,5.01,0.00,29.8,28.1,00.0,38.7,31.4,12.1,0001.4,0015.12,0007.49,0006.51
2022-10-18 03:09:00,,0832.0,4.99,0.00,29.8,28.1,00.0,38.7,31.4,12.1,0001.5,0014.59,0007.54,0006.52
2022-10-18 03:10:00,,0831.9,4.99,0.00,29.8,28.1,00.0,38.7,31.5,12.1,0002.0,0014.79,0007.58,0006.54
2022-10-18 03:11:00,,0831.9,4.99,0.00,29.8,28.0,00.0,38.7,31.4,12.1,0001.9,0015.77,0007.53,0006.55
2022-10-18 03:12:00,,0832.0,5.00,0.00,29.7,28.0,00.0,38.7,31.4,12.1,0001.5,0015.83,0007.52,0006.55
2022-10-18 03:13:00,,0832.0,5.00,0.00,29.7,28.0,00.0,38.7,31.4,12.1,0001.9,0015.82,0007.48,0006.54
2022-10-18 03:14:00,,0832.0,5.00,0.00,29.7,28.0,00.0,38.7,31.4,12.1,0002.3,0015.59,0007.44,0006.52
2022-10-18 03:15:00,,0832.0,5.00,0.00,29.7,28.0,00.0,38.6,31.4,12.1,0002.4,0015.07,0007.38,0006.50
2022-10-18 03:16:00,,0831.9,5.00,0.00,29.7,28.0,00.0,38.6,31.4,12.1,0002.3,0014.78,0007.34,0006.48
2022-10-18 03:17:00,,0832.0,4.99,0.00,29.7,28.0,00.0,38.6,31.4,12.2,0002.2,0015.64,0007.31,0006.46
2022-10-18 03:18:00,,0832.0,4.99,0.00,29.7,28.0,00.0,38.6,31.3,12.2,0001.3,0016.53,0007.30,0006.44
2022-10-18 03:19:00,,0832.0,5.01,0.00,29.7,28.0,00.0,38.6,31.4,12.2,0001.6,0016.58,0007.30,0006.42
2022-10-18 03:20:00,,0832.0,5.00,0.00,29.7,28.0,00.0,38.6,31.4,12.2,0002.2,0016.86,0007.32,0006.41
2022-10-18 03:21:00,,0832.0,5.00,0.00,29.7,27.9,00.0,38.6,31.4,12.2,0001.9,0016.96,0007.31,0006.39
2022-10-18 03:22:00,,0832.0,4.98,0.00,29.7,27.9,00.0,38.6,31.4,12.2,0001.5,0015.82,0007.29,0006.36
2022-10-18 03:23:00,,0832.0,5.00,0.00,29.6,27.9,00.0,38.6,31.3,12.2,0001.8,0016.05,0007.31,0006.34
2022-10-18 03:24:00,,0832.0,5.00,0.00,29.6,27.9,00.0,38.6,31.3,12.2,0001.5,0016.04,0007.28,0006.30
2022-10-18 03:25:00,,0832.0,5.00,0.00,29.6,27.9,00.0,38.5,31.3,12.2,0000.5,0015.89,0007.24,0006.28
2022-10-18 03:26:00,,0832.1,5.00,0.00,29.6,27.9,00.0,38.5,31.3,12.2,0001.8,0015.63,0007.28,0006.28
2022-10-18 03:27:00,,0832.1,5.01,0.00,29.6,27.9,00.0,38.5,31.4,12.2,0002.1,0015.71,0007.31,0006.28
2022-10-18 03:28:00,,0832.1,5.00,0.00,29.6,27.9,00.0,38.5,31.3,12.2,0002.4,0014.99,0007.35,0006.28
2022-10-18 03:29:00,,0832.1,5.00,0.00,29.6,27.9,00.0,38.5,31.3,12.2,0003.3,0013.82,0007.35,0006.30
2022-10-18 03:30:00,,0832.1,5.00,0.00,29.6,27.9,00.0,38.5,31.3,12.2,0000.6,0013.58,0007.36,0006.31
2022-10-18 03:31:00,,0832.1,5.00,0.00,29.6,27.9,00.0,38.5,31.4,12.3,0000.8,0013.60,0007.38,0006.31
2022-10-18 03:32:00,,0832.1,5.00,0.00,29.6,27.9,00.0,38.5,31.4,12.3,0002.3,0013.63,0007.36,0006.30
2022-10-18 03:33:00,,0832.1,4.99,0.00,29.6,27.9,00.0,38.5,31.4,12.2,0002.7,0013.85,0007.34,0006.31
2022-10-18 03:34:00,,0832.2,5.00,0.00,29.6,27.9,00.0,38.5,31.3,12.2,0003.4,0013.70,0007.33,0006.30
2022-10-18 03:35:00,,0832.1,5.00,0.00,29.6,27.9,00.0,38.5,31.3,12.2,0003.0,0013.57,0007.35,0006.31
2022-10-18 03:36:00,,0832.1,5.00,0.00,29.6,27.9,00.0,38.5,31.3,12.2,0003.2,0014.52,0007.43,0006.34
2022-10-18 03:37:00,,0832.1,5.00,0.00,29.5,27.9,00.0,38.4,31.3,12.2,0003.0,0014.99,0007.45,0006.35
2022-10-18 03:38:00,,0832.1,5.00,0.00,29.5,27.9,00.0,38.4,31.2,12.2,0002.7,0015.24,0007.43,0006.37
2022-10-18 03:39:00,,0832.1,5.00,0.00,29.5,27.8,00.0,38.4,31.2,12.2,0002.5,0014.98,0007.42,0006.39
2022-10-18 03:40:00,,0832.1,5.01,0.00,29.5,27.8,00.0,38.4,31.2,12.2,0002.2,0015.16,0007.45,0006.39
2022-10-18 03:41:00,,0832.1,5.00,0.00,29.5,27.8,00.0,38.4,31.2,12.2,0002.1,0015.58,0007.46,0006.39
2022-10-18 03:42:00,,0832.1,5.00,0.00,29.5,27.8,00.0,38.4,31.2,12.3,0002.9,0015.84,0007.47,0006.38
2022-10-18 03:43:00,,0832.1,5.00,0.00,29.5,27.8,00.0,38.4,31.2,12.3,0002.8,0016.53,0007.47,0006.39
2022-10-18 03:44:00,,0832.0,5.00,0.00,29.5,27.8,00.0,38.4,31.2,12.3,0001.8,0016.35,0007.52,0006.39
2022-10-18 03:45:00,,0832.1,4.99,0.00,29.5,27.8,00.0,38.4,31.2,12.3,0000.9,0016.74,0007.52,0006.41
2022-10-18 03:46:00,,0832.1,5.00,0.00,29.5,27.8,00.0,38.4,31.2,12.3,0001.1,0016.56,0007.50,0006.40
2022-10-18 03:47:00,,0832.1,5.01,0.00,29.5,27.8,00.0,38.4,31.2,12.3,0000.9,0016.14,0007.46,0006.39
2022-10-18 03:48:00,,0832.1,5.01,0.00,29.5,27.8,00.0,38.4,31.2,12.3,0000.5,0015.81,0007.43,0006.38
2022-10-18 03:49:00,,0832.1,5.00,0.00,29.5,27.8,00.0,38.4,31.2,12.3,0000.9,0015.18,0007.44,0006.38
2022-10-18 03:50:00,,0832.1,4.98,0.00,29.5,27.8,00.0,38.4,31.2,12.3,0001.0,0015.10,0007.43,0006.36
2022-10-18 03:51:00,,0832.1,5.00,0.00,29.4,27.7,00.0,38.3,31.1,12.3,0001.0,0015.63,0007.44,0006.36
2022-10-18 03:52:00,,0832.1,5.01,0.00,29.4,27.7,00.0,38.3,31.1,12.3,0001.3,0015.65,0007.42,0006.36
2022-10-18 03:53:00,,0832.1,5.00,0.00,29.4,27.7,00.0,38.3,31.1,12.3,0000.8,0015.66,0007.39,0006.37
2022-10-18 03:54:00,,0832.1,4.99,0.00,29.4,27.7,00.0,38.3,31.1,12.3,0000.6,0014.73,0007.41,0006.39
2022-10-18 03:55:00,,0832.1,5.00,0.00,29.4,27.7,00.0,38.3,31.1,12.3,0001.4,0014.61,0007.38,0006.42
2022-10-18 03:56:00,,0832.1,5.00,0.00,29.4,27.7,00.0,38.3,31.1,12.3,0000.5,0014.65,0007.38,0006.42
2022-10-18 03:57:00,,0832.1,5.00,0.00,29.4,27.7,00.0,38.3,31.1,12.3,0002.4,0014.60,0007.39,0006.46
2022-10-18 03:58:00,,0832.1,5.01,0.00,29.4,27.7,00.0,38.3,31.1,12.3,0002.8,0014.34,0007.41,0006.49
2022-10-18 03:59:00,,0832.1,5.01,0.00,29.4,27.6,00.0,38.3,31.1,12.3,0003.0,0014.81,0007.44,0006.52
